CW6764 Weather Reports


Display with metric or nautical units.
time (UTC)temp
F
wind
direction
speed
MPH
gust
MPH
rain 1hr
in
rain 24hr
in
rain mn
in
humidity
%
barometer
mb
20190321072410 47 279 1.0 5.0 0.00 0.00 0.00 72 1027.5
20190321071910 46 278 1.0 7.0 0.00 0.00 0.00 73 1027.5
20190321071411 46 278 1.0 7.0 0.00 0.00 0.00 73 1027.4
20190321070910 46 277 2.0 5.0 0.00 0.00 0.00 73 1027.4
20190321070411 46 277 1.0 5.0 0.00 0.00 0.00 73 1027.3
20190321065911 45 277 1.0 7.0 0.00 0.00 0.00 74 1027.3
20190321065411 45 277 1.0 7.0 0.00 0.00 0.00 75 1027.3
20190321064911 45 277 2.0 7.0 0.00 0.00 0.00 75 1027.3
20190321064410 45 277 1.0 5.0 0.00 0.00 0.00 75 1027.2
20190321063911 45 277 1.0 6.0 0.00 0.00 0.00 76 1027.2
20190321063410 44 277 2.0 6.0 0.00 0.00 0.00 76 1027.2
20190321062911 44 271 1.0 6.0 0.00 0.00 0.00 76 1027.2
20190321062413 44 270 1.0 5.0 0.00 0.00 0.00 76 1027.1
20190321061910 44 270 2.0 5.0 0.00 0.00 0.00 76 1027.0
20190321061412 44 269 0.0 3.0 0.00 0.00 0.00 76 1027.0
20190321060910 44 269 1.0 5.0 0.00 0.00 0.00 76 1027.0
20190321060411 44 269 0.0 5.0 0.00 0.00 0.00 76 1027.0
20190321055910 44 269 1.0 5.0 0.00 0.00 0.00 76 1026.9
20190321055411 44 269 2.0 3.0 0.00 0.00 0.00 76 1026.8
20190321054911 44 269 1.0 5.0 0.00 0.00 0.00 76 1026.9
20190321054411 44 269 0.0 5.0 0.00 0.00 0.00 76 1026.7
20190321053911 44 268 1.0 3.0 0.00 0.00 0.00 76 1026.7
20190321053411 44 268 1.0 3.0 0.00 0.00 0.00 76 1026.8
20190321052910 45 268 0.0 5.0 0.00 0.00 0.00 76 1026.6
20190321052411 45 269 2.0 5.0 0.00 0.00 0.00 76 1026.6
20190321051910 45 270 1.0 8.0 0.00 0.00 0.00 75 1026.6
20190321051411 45 271 1.0 9.0 0.00 0.00 0.00 75 1026.4
20190321050911 45 281 2.0 9.0 0.00 0.00 0.00 75 1026.5
20190321050411 45 279 3.0 8.0 0.00 0.00 0.00 75 1026.4
20190321045910 45 278 4.0 8.0 0.00 0.00 0.00 76 1026.4
20190321045410 45 272 2.0 8.0 0.00 0.00 0.00 76 1026.4
20190321044910 45 288 3.0 8.0 0.00 0.00 0.00 77 1026.4
20190321044411 45 276 2.0 10.0 0.00 0.00 0.00 77 1026.3
20190321043911 45 261 4.0 10.0 0.00 0.00 0.00 77 1026.4
20190321043410 45 274 3.0 8.0 0.00 0.00 0.00 78 1026.4
20190321042910 45 249 3.0 8.0 0.00 0.00 0.00 78 1026.5
20190321042410 45 250 3.0 8.0 0.00 0.00 0.00 78 1026.5
20190321041910 45 256 2.0 8.0 0.00 0.00 0.00 78 1026.5
20190321041410 45 246 2.0 8.0 0.00 0.00 0.00 78 1026.4
20190321040910 45 277 2.0 8.0 0.00 0.00 0.00 78 1026.6
20190321040411 45 276 4.0 12.0 0.00 0.00 0.00 78 1026.5
20190321035911 45 264 4.0 12.0 0.00 0.00 0.00 77 1026.5
20190321035410 46 258 3.0 12.0 0.00 0.00 0.00 77 1026.5
20190321034911 46 281 3.0 9.0 0.00 0.00 0.00 77 1026.6
20190321034410 46 284 4.0 12.0 0.00 0.00 0.00 77 1026.7
20190321033910 46 277 3.0 12.0 0.00 0.00 0.00 77 1026.6
20190321033410 46 280 2.0 10.0 0.00 0.00 0.00 77 1026.6
20190321032910 46 280 3.0 10.0 0.00 0.00 0.00 76 1026.7
20190321032410 46 279 5.0 10.0 0.00 0.00 0.00 76 1026.6
20190321031910 46 291 4.0 9.0 0.00 0.00 0.00 75 1026.6
20190321031411 46 286 3.0 9.0 0.00 0.00 0.00 75 1026.7
20190321030911 46 277 2.0 8.0 0.00 0.00 0.00 75 1026.7
20190321030410 46 279 2.0 8.0 0.00 0.00 0.00 75 1026.7
20190321025910 46 261 1.0 8.0 0.00 0.00 0.00 75 1026.8
20190321025410 46 283 5.0 8.0 0.00 0.00 0.00 75 1026.8
20190321024910 47 320 2.0 8.0 0.00 0.00 0.00 75 1026.8
20190321024410 46 292 3.0 7.0 0.00 0.00 0.00 76 1026.9
20190321023910 47 285 3.0 8.0 0.00 0.00 0.00 76 1027.0
20190321023411 47 288 2.0 8.0 0.00 0.00 0.00 76 1027.0
20190321022910 47 289 2.0 5.0 0.00 0.00 0.00 76 1027.1
20190321022411 47 294 1.0 5.0 0.00 0.00 0.00 77 1027.2
20190321021911 46 285 0.0 3.0 0.00 0.00 0.00 77 1027.2
20190321021411 46 285 0.0 3.0 0.00 0.00 0.00 77 1027.3
20190321020911 46 285 0.0 8.0 0.00 0.00 0.00 78 1027.4
20190321020410 46 286 2.0 8.0 0.00 0.00 0.00 78 1027.5
20190321015910 46 292 2.0 7.0 0.00 0.00 0.00 78 1027.5
20190321015410 46 290 3.0 7.0 0.00 0.00 0.00 79 1027.6
20190321014910 46 292 1.0 6.0 0.00 0.00 0.00 79 1027.7
20190321014410 46 284 2.0 7.0 0.00 0.00 0.00 78 1027.7
20190321013911 46 286 3.0 7.0 0.00 0.00 0.00 78 1027.8
20190321013410 46 286 3.0 6.0 0.00 0.00 0.00 78 1027.9
20190321012911 46 286 2.0 6.0 0.00 0.00 0.00 78 1027.9
20190321012411 46 286 3.0 6.0 0.00 0.00 0.00 78 1027.9
20190321011910 47 287 1.0 7.0 0.00 0.00 0.00 77 1027.9
20190321011411 47 287 2.0 7.0 0.00 0.01 0.00 77 1027.9
20190321010910 47 288 2.0 8.0 0.00 0.01 0.00 77 1027.9
20190321010410 47 289 2.0 8.0 0.00 0.01 0.00 78 1028.0
20190321005910 47 281 3.0 7.0 0.00 0.01 0.00 79 1027.9
20190321005410 46 281 1.0 7.0 0.00 0.01 0.00 79 1027.9
20190321004911 46 281 2.0 7.0 0.00 0.01 0.00 80 1028.0
20190321004411 46 278 1.0 5.0 0.00 0.02 0.00 80 1028.0
20190321003911 46 279 2.0 5.0 0.00 0.02 0.00 80 1028.1
20190321003410 46 279 1.0 5.0 0.00 0.02 0.00 80 1028.1
20190321002911 46 278 1.0 5.0 0.00 0.03 0.00 80 1028.2
20190321002410 46 279 1.0 5.0 0.00 0.03 0.00 80 1028.3
20190321001910 47 279 1.0 6.0 0.00 0.03 0.00 80 1028.3
20190321001411 47 279 2.0 6.0 0.00 0.04 0.00 80 1028.3
20190321000910 47 279 0.0 6.0 0.00 0.04 0.00 80 1028.3
20190321000411 47 279 1.0 6.0 0.00 0.04 0.00 80 1028.3
20190320235911 47 279 3.0 6.0 0.00 0.04 0.04 80 1028.4
20190320235410 47 279 2.0 6.0 0.00 0.05 0.04 80 1028.4
20190320234911 48 279 1.0 5.0 0.00 0.05 0.04 80 1028.4
20190320234410 48 279 0.0 5.0 0.00 0.05 0.04 80 1028.5
20190320233911 48 279 0.0 5.0 0.00 0.05 0.04 80 1028.5
20190320233410 48 279 1.0 5.0 0.00 0.05 0.04 80 1028.5
20190320232910 48 279 1.0 5.0 0.00 0.05 0.04 80 1028.5
20190320232410 48 282 0.0 5.0 0.00 0.06 0.04 79 1028.5
20190320231910 48 282 1.0 5.0 0.00 0.06 0.04 79 1028.6
20190320231410 49 283 2.0 5.0 0.00 0.06 0.04 78 1028.6
20190320230910 49 292 0.0 3.0 0.00 0.06 0.04 78 1028.7
20190320230410 49 298 0.0 3.0 0.00 0.06 0.04 78 1028.7
20190320225910 49 298 0.0 2.0 0.00 0.06 0.04 78 1028.6
20190320225410 49 300 0.0 2.0 0.00 0.06 0.04 77 1028.5
20190320224910 50 300 0.0 2.0 0.00 0.06 0.04 77 1028.6
20190320224410 50 300 0.0 0.0 0.00 0.06 0.04 77 1028.6
20190320223910 50 300 0.0 0.0 0.00 0.06 0.04 76 1028.6
20190320223410 50 301 0.0 0.0 0.00 0.06 0.04 76 1028.6
20190320222910 50 301 0.0 0.0 0.00 0.06 0.04 76 1028.6
20190320222410 51 301 0.0 0.0 0.00 0.06 0.04 76 1028.7
20190320221910 51 301 0.0 0.0 0.00 0.06 0.04 75 1028.7
20190320221411 51 301 0.0 0.0 0.00 0.06 0.04 75 1028.7
20190320220910 51 301 0.0 0.0 0.00 0.06 0.04 75 1028.7
20190320220411 51 301 0.0 0.0 0.00 0.06 0.04 74 1028.7
20190320215910 52 301 0.0 3.0 0.00 0.06 0.04 73 1028.7
20190320215411 52 301 0.0 3.0 0.00 0.06 0.04 73 1028.7
20190320214910 52 17 0.0 3.0 0.00 0.06 0.04 72 1028.6
20190320214412 53 77 0.0 0.0 0.00 0.06 0.04 71 1028.6
20190320213911 53 78 0.0 0.0 0.00 0.06 0.04 70 1028.7
20190320213411 53 78 0.0 0.0 0.00 0.06 0.04 70 1028.7
20190320212910 53 78 0.0 0.0 0.00 0.06 0.04 69 1028.6
20190320212410 54 78 0.0 0.0 0.00 0.06 0.04 69 1028.6
20190320211910 54 78 0.0 0.0 0.00 0.06 0.04 68 1028.5
20190320211410 54 78 0.0 0.0 0.00 0.06 0.04 67 1028.5
20190320210911 54 78 0.0 0.0 0.00 0.06 0.04 66 1028.5
20190320210410 54 78 0.0 0.0 0.00 0.06 0.04 65 1028.5
20190320205911 54 78 0.0 3.0 0.00 0.06 0.04 65 1028.5
20190320205410 54 81 0.0 3.0 0.00 0.06 0.04 65 1028.5
20190320204911 54 82 0.0 3.0 0.00 0.06 0.04 64 1028.4
20190320204410 54 82 0.0 3.0 0.00 0.06 0.04 64 1028.5
20190320203910 54 82 0.0 3.0 0.00 0.06 0.04 64 1028.4
20190320203410 54 83 1.0 6.0 0.00 0.06 0.04 65 1028.4
20190320202910 54 86 2.0 6.0 0.00 0.06 0.04 65 1028.4
20190320202410 54 25 0.0 3.0 0.00 0.06 0.04 66 1028.4
20190320201910 54 25 1.0 6.0 0.00 0.06 0.04 66 1028.3
20190320201410 54 22 2.0 6.0 0.00 0.06 0.04 66 1028.4
20190320200910 55 57 1.0 5.0 0.00 0.06 0.04 66 1028.3
20190320200410 55 35 1.0 7.0 0.00 0.06 0.04 66 1028.2
20190320195910 55 34 0.0 7.0 0.00 0.06 0.04 66 1028.2
20190320195410 54 55 3.0 7.0 0.00 0.06 0.04 66 1028.1
20190320194910 54 85 0.0 6.0 0.00 0.06 0.04 67 1028.1
20190320194410 55 76 1.0 5.0 0.00 0.06 0.04 67 1028.0
20190320193910 55 51 0.0 5.0 0.00 0.06 0.04 67 1028.1
20190320193411 55 65 2.0 7.0 0.00 0.06 0.04 67 1028.0
20190320192910 55 49 3.0 7.0 0.00 0.06 0.04 67 1028.0
20190320192410 55 50 3.0 7.0 0.00 0.06 0.04 67 1027.9
20190320191915 55 40 0.0 5.0 0.00 0.06 0.04 67 1027.8
20190320191410 55 15 1.0 3.0 0.00 0.06 0.04 66 1027.8
20190320190911 55 85 2.0 6.0 0.00 0.06 0.04 66 1027.7
20190320190410 55 90 0.0 6.0 0.00 0.06 0.04 66 1027.7
20190320185910 55 80 1.0 5.0 0.00 0.06 0.04 65 1027.7
20190320185410 55 60 0.0 5.0 0.00 0.06 0.04 64 1027.6
20190320184910 55 26 0.0 5.0 0.00 0.06 0.04 63 1027.6
20190320184410 55 24 2.0 6.0 0.00 0.06 0.04 63 1027.6
20190320183910 55 79 1.0 6.0 0.00 0.06 0.04 62 1027.5
20190320183410 55 83 2.0 5.0 0.00 0.06 0.04 63 1027.4
20190320182910 55 85 0.0 6.0 0.00 0.06 0.04 64 1027.4
20190320182410 55 84 1.0 6.0 0.00 0.06 0.04 64 1027.2
20190320181910 55 90 0.0 0.0 0.00 0.06 0.04 64 1027.2
20190320181410 55 89 0.0 3.0 0.00 0.06 0.04 64 1027.2
20190320180910 55 89 0.0 3.0 0.00 0.06 0.04 64 1027.1
20190320180410 55 107 0.0 3.0 0.00 0.06 0.04 64 1027.0
20190320175910 56 107 0.0 3.0 0.00 0.06 0.04 63 1027.0
20190320175409 56 115 1.0 7.0 0.00 0.06 0.04 63 1027.0
20190320174912 56 105 0.0 9.0 0.00 0.06 0.04 62 1026.9
20190320174410 56 94 3.0 9.0 0.00 0.06 0.04 62 1026.9
20190320173910 56 96 5.0 9.0 0.00 0.06 0.04 61 1026.9
20190320173410 56 76 1.0 9.0 0.00 0.06 0.04 61 1026.7
20190320172910 56 105 5.0 9.0 0.00 0.06 0.04 60 1026.7
20190320172410 57 101 1.0 8.0 0.00 0.06 0.04 61 1026.7
20190320171910 57 144 2.0 7.0 0.00 0.06 0.04 61 1026.7
20190320171409 57 84 2.0 7.0 0.00 0.06 0.04 60 1026.6
20190320170910 57 97 1.0 8.0 0.00 0.06 0.04 59 1026.5
20190320170410 57 82 4.0 8.0 0.00 0.06 0.04 57 1026.6
20190320165910 58 118 2.0 6.0 0.00 0.06 0.04 58 1026.4
20190320165410 58 98 1.0 6.0 0.00 0.06 0.04 57 1026.4
20190320164911 58 156 1.0 8.0 0.00 0.06 0.04 57 1026.4
20190320164410 58 160 1.0 8.0 0.00 0.06 0.04 57 1026.4
20190320163910 58 76 1.0 8.0 0.00 0.06 0.04 57 1026.4
20190320163410 58 122 5.0 8.0 0.00 0.06 0.04 56 1026.2
20190320162910 58 59 4.0 7.0 0.00 0.06 0.04 55 1026.2
20190320162409 58 114 2.0 7.0 0.00 0.06 0.04 57 1026.2
20190320161910 58 178 1.0 8.0 0.00 0.06 0.04 57 1026.1
20190320161409 58 89 1.0 8.0 0.00 0.06 0.04 58 1026.1
20190320160909 58 155 2.0 8.0 0.00 0.06 0.04 57 1026.1
20190320160410 58 115 2.0 6.0 0.00 0.06 0.04 57 1026.1
20190320155909 58 104 0.0 8.0 0.00 0.06 0.04 57 1026.1
20190320155410 58 130 2.0 8.0 0.00 0.06 0.04 57 1026.0
20190320154910 58 90 1.0 7.0 0.00 0.06 0.04 57 1026.1
20190320154409 58 84 2.0 8.0 0.00 0.06 0.04 57 1026.1
20190320153910 58 110 2.0 8.0 0.00 0.06 0.04 58 1026.1
20190320153412 58 92 4.0 8.0 0.00 0.06 0.04 57 1026.1
20190320152910 58 182 0.0 8.0 0.00 0.06 0.04 57 1026.0
20190320152410 58 93 2.0 8.0 0.00 0.06 0.04 58 1026.1
20190320151910 59 114 3.0 8.0 0.00 0.06 0.04 56 1026.1
20190320151410 59 355 2.0 8.0 0.00 0.06 0.04 58 1026.1
20190320150910 58 81 1.0 12.0 0.00 0.06 0.04 58 1026.0
20190320150410 58 115 4.0 12.0 0.00 0.06 0.04 59 1026.1
20190320145910 58 93 3.0 12.0 0.00 0.06 0.04 58 1026.1
20190320145410 58 94 3.0 12.0 0.00 0.06 0.04 58 1026.1
20190320144910 58 99 3.0 12.0 0.00 0.06 0.04 58 1026.1
20190320144410 58 51 3.0 10.0 0.00 0.06 0.04 57 1026.1
20190320143909 58 86 3.0 8.0 0.00 0.06 0.04 58 1026.2
20190320143410 59 102 2.0 12.0 0.00 0.06 0.04 56 1026.2
20190320142909 59 18 1.0 12.0 0.00 0.06 0.04 57 1026.2
20190320142410 59 77 4.0 12.0 0.00 0.06 0.04 56 1026.4
20190320141910 59 108 5.0 12.0 0.00 0.06 0.04 54 1026.3
20190320141410 60 76 2.0 12.0 0.00 0.06 0.04 54 1026.3
20190320140910 59 175 2.0 9.0 0.00 0.06 0.04 53 1026.3
20190320140410 59 156 3.0 10.0 0.00 0.06 0.04 53 1026.3
20190320135910 59 124 4.0 12.0 0.00 0.06 0.04 54 1026.4
20190320135410 59 94 5.0 12.0 0.00 0.06 0.04 52 1026.5
20190320134909 59 28 4.0 9.0 0.00 0.06 0.04 51 1026.5
20190320134410 59 96 2.0 9.0 0.00 0.06 0.04 51 1026.5
20190320133910 59 157 1.0 9.0 0.00 0.06 0.04 51 1026.5
20190320133411 60 92 3.0 9.0 0.00 0.06 0.04 51 1026.6
20190320132910 59 112 2.0 12.0 0.00 0.06 0.04 51 1026.7
20190320132410 59 110 2.0 13.0 0.00 0.06 0.04 51 1026.8
20190320131910 59 94 3.0 13.0 0.00 0.06 0.04 51 1026.8
20190320131410 59 83 6.0 13.0 0.00 0.06 0.04 50 1026.8
20190320130910 59 146 3.0 12.0 0.00 0.06 0.04 50 1026.8
20190320130409 59 68 1.0 12.0 0.00 0.06 0.04 50 1026.9
20190320125909 58 191 2.0 13.0 0.00 0.06 0.04 50 1027.0
20190320125410 58 103 5.0 13.0 0.00 0.06 0.04 50 1027.1
20190320124909 58 129 4.0 13.0 0.00 0.06 0.04 50 1027.2
20190320124409 59 69 5.0 12.0 0.00 0.06 0.04 50 1027.2
20190320123909 58 102 2.0 12.0 0.00 0.06 0.04 50 1027.3
20190320123410 58 56 2.0 12.0 0.00 0.06 0.04 51 1027.3
20190320122910 59 100 5.0 9.0 0.00 0.06 0.04 50 1027.4
20190320122410 59 172 0.0 12.0 0.00 0.06 0.04 51 1027.4
20190320121909 59 100 2.0 12.0 0.00 0.06 0.04 50 1027.4
20190320121409 59 69 3.0 8.0 0.00 0.06 0.04 49 1027.5
20190320120909 59 87 2.0 6.0 0.00 0.06 0.04 50 1027.6
20190320120409 59 84 2.0 8.0 0.00 0.06 0.04 51 1027.6
20190320115910 58 92 2.0 10.0 0.00 0.06 0.04 51 1027.6
20190320115409 58 157 2.0 10.0 0.00 0.06 0.04 51 1027.7
20190320114910 57 95 2.0 9.0 0.00 0.06 0.04 52 1027.6
20190320114410 57 69 4.0 9.0 0.00 0.06 0.04 51 1027.8
20190320113910 57 80 4.0 9.0 0.00 0.06 0.04 51 1027.9
20190320113410 57 98 3.0 12.0 0.00 0.06 0.04 53 1027.8
20190320112909 57 87 4.0 12.0 0.00 0.06 0.04 51 1027.8
20190320112409 57 48 4.0 12.0 0.00 0.06 0.04 51 1027.9
20190320111910 57 99 7.0 13.0 0.00 0.06 0.04 50 1027.9
20190320111409 57 21 0.0 13.0 0.00 0.06 0.04 51 1027.9
20190320110910 57 91 3.0 13.0 0.00 0.06 0.04 51 1027.9
20190320110410 57 107 7.0 13.0 0.00 0.06 0.04 50 1027.9
20190320105910 57 99 5.0 12.0 0.00 0.06 0.04 51 1027.8
20190320105409 57 97 5.0 12.0 0.00 0.06 0.04 51 1027.8
20190320104911 57 98 5.0 12.0 0.00 0.06 0.04 50 1027.8
20190320104411 57 86 2.0 12.0 0.00 0.06 0.04 49 1027.9
20190320103910 57 99 5.0 12.0 0.00 0.06 0.04 49 1027.8
20190320103410 57 63 1.0 6.0 0.00 0.06 0.04 51 1027.8
20190320102909 57 2 1.0 7.0 0.00 0.06 0.04 51 1027.8
20190320102410 57 23 2.0 7.0 0.00 0.06 0.04 50 1027.7
20190320101909 58 327 2.0 7.0 0.00 0.06 0.04 49 1027.7
20190320101411 59 11 2.0 5.0 0.00 0.06 0.04 49 1027.8
20190320100910 59 204 1.0 5.0 0.00 0.06 0.04 51 1027.8
20190320100410 58 28 0.0 5.0 0.00 0.06 0.04 49 1027.8
20190320095910 58 26 0.0 3.0 0.00 0.06 0.04 51 1027.7
20190320095409 58 26 1.0 3.0 0.00 0.06 0.04 51 1027.7
20190320094910 58 15 0.0 0.0 0.00 0.06 0.04 51 1027.7
20190320094409 58 17 0.0 2.0 0.00 0.06 0.04 53 1027.7
20190320093909 58 16 0.0 3.0 0.00 0.06 0.04 53 1027.6
20190320093409 57 347 0.0 6.0 0.00 0.06 0.04 55 1027.6
20190320092909 57 40 2.0 6.0 0.00 0.06 0.04 54 1027.6
20190320092409 57 263 0.0 3.0 0.00 0.06 0.04 56 1027.6
20190320091909 57 259 0.0 0.0 0.00 0.06 0.04 56 1027.5
20190320091409 56 259 0.0 2.0 0.00 0.06 0.04 58 1027.5
20190320090909 55 259 0.0 3.0 0.00 0.06 0.04 60 1027.6
20190320090410 55 259 1.0 3.0 0.00 0.06 0.04 60 1027.5
20190320085910 55 260 2.0 5.0 0.00 0.06 0.04 60 1027.5
20190320085409 54 261 1.0 7.0 0.00 0.06 0.04 61 1027.6
20190320084909 54 261 2.0 7.0 0.00 0.06 0.04 60 1027.5
20190320084410 54 263 1.0 6.0 0.00 0.06 0.04 60 1027.5
20190320083910 54 263 1.0 7.0 0.00 0.06 0.04 60 1027.5
20190320083409 54 246 2.0 8.0 0.00 0.06 0.04 60 1027.5
20190320082910 53 279 2.0 9.0 0.00 0.06 0.04 60 1027.4
20190320082409 53 275 2.0 9.0 0.00 0.06 0.04 60 1027.4
20190320081910 53 281 3.0 8.0 0.00 0.06 0.04 61 1027.4
20190320081410 52 277 2.0 8.0 0.00 0.06 0.04 62 1027.4
20190320080910 52 286 0.0 8.0 0.00 0.06 0.04 64 1027.3
20190320080409 52 281 1.0 8.0 0.00 0.06 0.04 64 1027.4
20190320075909 52 273 1.0 8.0 0.00 0.06 0.04 68 1027.4
20190320075410 51 280 1.0 7.0 0.00 0.06 0.04 70 1027.3
20190320074910 51 277 1.0 9.0 0.00 0.06 0.04 72 1027.3
20190320074409 50 288 2.0 9.0 0.00 0.06 0.04 74 1027.3
20190320073909 50 275 1.0 7.0 0.00 0.06 0.04 77 1027.3
20190320073409 50 270 3.0 7.0 0.00 0.06 0.04 79 1027.3
20190320072910 49 271 1.0 5.0 0.00 0.06 0.04 80 1027.3